This demonstration page uses our WeatherBlox Daily Observations layout. Learn more.

Left ArrowRight Arrow

41.86663, -103.66717

Hourly Observations for February 19, 2019

Temp ( °F °C ) Dew Point ( °F °C ) Humidity (%) Winds ( mph kmh ) Pressure ( in mb ) Visibility ( mi km ) Precip ( " mm )
12:53 am 00:53 Cloudy 10 -12.2 7 -13.9 87 87 ESE 15 24 30.31 1026 10 16 N/A
1:53 am 01:53 Cloudy 11 -11.7 8 -13.3 88 88 ESE 13 20 30.30 1026 9 14 N/A
2:53 am 02:53 Cloudy with Light Snow 12 -11.1 9 -12.8 87 87 ESE 15 24 30.25 1024 6 10 N/A
3:53 am 03:53 Cloudy 12 -11.1 9 -12.8 87 87 ESE 14 22 30.24 1024 8 13 N/A
4:53 am 04:53 Cloudy with Light Snow 12 -11.1 9 -12.8 87 87 ESE 13 20 30.23 1024 5 8 N/A
5:15 am 05:15 Cloudy with Light Snow 12 -11 9 -13 85 85 ESE 15 24 30.36 1028 5 8 N/A
5:53 am 05:53 Cloudy with Light Snow 12 -11.1 10 -12.2 92 92 ESE 10 17 30.23 1024 5 8 N/A
6:13 am 06:13 Cloudy with Light Snow 12 -11.1 10 -12.2 92 92 ESE 12 19 30.35 1028 5 8 N/A
6:53 am 06:53 Cloudy 13 -10.6 9 -12.8 84 84 SE 10 17 30.22 1024 10 16 N/A
7:53 am 07:53 Cloudy 14 -10 9 -12.8 80 80 SE 14 22 30.21 1023 10 16 N/A
8:53 am 08:53 Cloudy 15 -9.4 11 -11.7 84 84 SE 14 22 30.20 1023 7 11 N/A
9:15 am 09:15 Cloudy with Light Snow 16 -8.9 11 -11.7 80 80 SE 16 26 30.27 1025 3 4 N/A
9:42 am 09:42 Cloudy with Light Snow 16 -8.9 12 -11.1 84 84 SE 14 22 30.26 1025 3 5 N/A
9:53 am 09:53 Cloudy with Light Snow 18 -7.8 13 -10.6 81 81 SE 12 19 30.17 1022 4 6 N/A
10:11 am 10:11 Cloudy with Light Snow 18 -7.8 14 -10 84 84 SE 10 17 30.23 1024 3 4 N/A
10:32 am 10:32 Cloudy with Light Snow 19 -7.2 13 -10.6 77 77 SSE 16 26 30.21 1023 3 5 N/A
10:50 am 10:50 Cloudy with Light Snow 19 -7 12 -11 73 73 S 12 19 30.21 1023 3 4 N/A
10:53 am 10:53 Cloudy with Light Snow 20 -6.7 13 -10.6 74 74 SSE 12 19 30.14 1021 3 4 N/A
11:33 am 11:33 Cloudy with Light Snow 20 -6.7 15 -9.4 81 81 SSE 13 20 30.17 1022 1 2 N/A
11:50 am 11:50 Cloudy with Light Snow 21 -6 16 -9 80 80 SE 13 20 30.15 1021 3 5 N/A
11:53 am 11:53 Cloudy with Light Snow 21 -6.1 15 -9.4 78 78 SSE 13 20 30.11 1020 3 5 N/A
12:08 pm 12:08 Cloudy with Light Snow 21 -6 16 -9 80 80 SSE 12 19 30.14 1021 3 4 N/A
12:14 pm 12:14 Cloudy with Light Snow 21 -6 16 -9 80 80 SSE 12 19 30.13 1020 2 3 N/A
12:29 pm 12:29 Cloudy with Light Snow 19 -7 18 -8 93 93 SSE 12 19 30.14 1021 1 1 N/A
12:40 pm 12:40 Cloudy with Light Snow 19 -7 16 -9 86 86 SSE 12 19 30.14 1021 1 2 N/A
12:53 pm 12:53 Cloudy with Light Snow 20 -6.7 17 -8.3 89 89 SSE 13 20 30.06 1018 1 1 0.01 0.25
1:00 pm 13:00 Cloudy with Light Snow 20 -6.7 16 -8.9 85 85 S 15 24 30.11 1020 2 3 N/A
1:05 pm 13:05 Cloudy with Light Snow 21 -6.1 16 -8.9 81 81 S 12 19 30.10 1019 3 5 N/A
1:16 pm 13:16 Cloudy with Light Snow 21 -6 18 -8 86 86 SSE 12 19 30.10 1019 2 3 N/A
1:30 pm 13:30 Mostly Cloudy with Light Snow 19 -7 18 -8 93 93 SE 9 15 30.11 1020 1 1 N/A
1:38 pm 13:38 Mostly Cloudy with Snow 20 -6.7 17 -8.3 89 89 SSE 12 19 30.09 1019 1 1 0.01 0.25
1:53 pm 13:53 Mostly Cloudy with Light Snow 20 -6.7 17 -8.3 89 89 SSE 13 20 30.03 1017 1 2 0.02 0.51
2:03 pm 14:03 Mostly Cloudy with Snow 20 -6.7 18 -7.8 92 92 S 10 17 30.08 1019 1 1 N/A
2:30 pm 14:30 Cloudy with Light Snow 20 -6.7 16 -8.9 85 85 SSE 13 20 30.07 1018 2 2 0.01 0.25
2:41 pm 14:41 Cloudy with Light Snow 21 -6 18 -8 86 86 SSE 12 19 30.06 1018 2 3 N/A
2:53 pm 14:53 Cloudy with Light Snow 20 -6.7 17 -8.3 89 89 SSE 12 19 30.00 1016 2 3 0.01 0.25
3:01 pm 15:01 Cloudy with Light Snow 20 -6.7 17 -8.3 89 89 SSE 9 15 30.06 1018 1 2 N/A
3:10 pm 15:10 Cloudy with Light Snow 20 -6.7 17 -8.3 89 89 SSE 9 15 30.06 1018 1 2 N/A
3:16 pm 15:16 Cloudy with Light Snow 20 -6.7 17 -8.3 89 89 SSE 10 17 30.06 1018 1 1 N/A
3:23 pm 15:23 Cloudy with Light Snow 19 -7 18 -8 93 93 ESE 10 17 30.07 1018 1 1 N/A
3:34 pm 15:34 Cloudy with Light Snow 19 -7.2 16 -8.9 88 88 ESE 12 19 30.07 1018 1 1 0.01 0.25
3:42 pm 15:42 Cloudy with Light Snow 19 -7.2 16 -8.9 88 88 ESE 13 20 30.07 1018 1 2 0.01 0.25
3:53 pm 15:53 Cloudy with Light Snow 19 -7.2 16 -8.9 88 88 ESE 13 20 29.99 1016 2 3 0.01 0.25
4:53 pm 16:53 Cloudy with Light Snow 18 -7.8 16 -8.9 92 92 ESE 12 19 29.98 1015 2 2 0.01 0.25
5:07 pm 17:07 Cloudy with Light Snow 17 -8.3 15 -9.4 92 92 ESE 13 20 30.07 1018 3 4 N/A
5:14 pm 17:14 Cloudy with Light Snow 17 -8.3 14 -10 88 88 ESE 13 20 30.07 1018 4 6 N/A
5:53 pm 17:53 Cloudy 15 -9.4 12 -11.1 88 88 ESE 14 22 29.98 1015 10 16 N/A
6:14 pm 18:14 Cloudy 16 -9 12 -11 86 86 SE 13 20 30.08 1019 10 16 N/A
6:53 pm 18:53 Mostly Cloudy 10 -12.2 8 -13.3 92 92 ESE 9 15 29.99 1016 10 16 N/A
7:53 pm 19:53 Cloudy 9 -12.8 7 -13.9 92 92 ESE 8 13 29.98 1015 10 16 N/A
8:53 pm 20:53 Cloudy with Light Snow 11 -11.7 10 -12.2 96 96 E 8 13 29.95 1014 5 8 N/A
9:53 pm 21:53 Mostly Clear 6 -14.4 5 -15 95 95 E 7 11 29.93 1014 8 13 N/A
10:53 pm 22:53 Clear 5 -15 3 -16.1 91 91 E 9 15 29.89 1012 7 11 N/A
11:53 pm 23:53 Clear with Mist and Fog 2 -16.7 N/A 91 91 E 8 13 29.86 1011 6 10 N/A

Powered by AerisWeather